Wind_Speed
64 64 63 60 56 52 51 53 54 55 54 54 55 54 51 47 43 40 40 41 40 39 37 33 29 28 28 27 24 24 25 28 27 21 23 27 25 25 23 21 21 19 20 21 21 20 20 20 21 21 23 25 27 28 30 32 33 34 35 37 38 40 41 41 42 42 41 40 39 37 36 35 34 34 33 32 31 31 30 30 30 30 30 30 30
67 67 65 62 60 56 55 55 55 55 55 55 57 55 49 45 42 39 38 38 39 39 35 32 30 30 28 28 27 24 24 27 25 22 26 27 24 22 20 22 21 17 18 20 20 19 20 20 21 22 23 26 27 29 31 32 34 35 36 36 38 39 40 41 42 42 41 40 38 37 35 33 32 32 32 31 31 30 29 28 27 27 28 28 28
65 64 63 61 61 60 59 59 58 58 58 58 57 54 49 45 42 40 39 38 40 38 33 31 31 31 29 30 29 23 23 26 26 26 29 28 22 18 19 21 18 15 17 19 20 19 19 21 21 22 24 26 28 30 32 33 34 35 35 36 38 39 39 40 40 40 40 39 37 36 34 33 32 32 31 31 31 30 29 27 26 26 26 27 27
63 62 61 60 60 60 60 59 59 58 58 57 55 52 49 46 43 42 41 41 40 35 32 33 31 30 29 30 29 22 23 26 27 26 28 28 18 16 20 19 16 16 17 19 21 19 19 20 22 23 24 27 29 31 33 33 35 36 36 37 38 38 38 38 38 38 38 37 36 35 34 33 32 31 31 31 31 30 28 27 27 27 27 27 27
61 61 60 58 58 58 58 58 57 56 55 54 52 51 48 44 43 42 42 41 38 34 33 34 32 30 29 29 28 25 25 27 27 25 25 24 17 16 18 17 18 20 19 19 22 21 19 19 22 24 25 28 31 33 33 33 35 36 36 37 38 38 37 37 37 37 37 35 34 34 34 33 32 32 31 31 31 31 29 29 28 28 28 27 27
58 57 56 55 55 55 56 56 55 53 52 51 50 49 47 43 41 41 40 39 38 36 34 33 33 33 31 30 29 28 27 27 27 25 25 24 20 20 19 20 23 24 22 20 20 21 22 22 24 26 28 31 33 34 33 34 36 36 37 37 37 37 37 37 37 37 36 34 33 33 34 33 33 32 32 32 32 32 32 31 31 30 29 28 27
56 55 52 50 50 51 52 52 50 48 47 47 47 47 45 42 41 40 40 40 39 38 36 33 33 34 33 32 31 31 30 30 29 28 28 27 24 24 24 25 27 25 23 21 19 20 23 25 27 29 31 33 34 34 33 34 36 36 36 37 37 37 36 36 36 36 35 33 32 32 33 33 33 33 32 32 32 32 33 33 32 31 30 28 27
54 53 50 45 45 47 47 46 44 43 44 45 45 45 43 41 40 39 39 40 40 39 38 34 34 34 32 31 32 33 34 33 32 30 30 29 26 25 28 30 29 26 24 23 22 22 24 26 27 29 31 33 33 33 33 34 35 35 36 36 37 37 36 35 35 35 34 33 32 32 32 32 33 34 33 33 32 32 32 32 32 32 31 29 28
50 49 47 41 40 42 42 39 40 42 44 44 44 43 43 43 41 38 37 39 42 41 39 36 36 36 33 32 32 33 35 35 33 31 30 30 28 26 28 30 29 27 25 25 25 27 28 27 27 29 30 32 32 32 32 33 33 34 35 36 37 36 35 35 35 35 34 33 32 32 33 33 34 34 35 34 34 32 31 31 32 32 32 30 29
48 47 46 44 42 40 40 39 39 39 41 41 41 40 40 41 41 40 40 41 42 41 38 37 38 38 36 34 34 34 35 35 33 30 31 32 31 29 28 30 31 28 26 25 26 30 30 28 27 28 30 31 31 31 32 32 32 33 34 36 37 36 35 35 35 35 35 34 33 33 34 35 35 36 36 36 36 34 33 32 31 31 31 31 31
49 50 50 48 46 41 40 43 41 39 38 37 38 38 38 39 39 39 40 40 40 39 38 37 37 37 36 36 37 37 37 36 32 30 30 31 31 30 29 30 31 31 28 25 26 30 30 28 27 28 29 31 30 30 31 31 32 31 33 37 38 37 35 34 35 35 35 34 34 34 35 36 37 38 38 38 38 36 34 33 33 32 31 30 31
51 53 53 49 45 41 40 42 41 41 40 39 39 36 36 37 37 37 36 36 36 36 37 37 36 34 34 36 36 37 38 34 30 29 29 27 28 28 28 28 30 32 28 24 24 26 28 28 27 26 28 30 29 30 30 30 31 31 33 37 39 38 36 35 34 34 35 35 35 35 36 37 38 39 40 39 39 36 33 32 32 31 30 30 31
52 53 53 51 46 42 42 43 43 42 41 43 44 40 38 38 36 35 34 34 33 34 35 36 36 34 33 33 34 35 35 32 29 30 30 28 27 27 27 27 30 30 26 22 21 24 28 28 25 25 27 29 30 30 29 29 31 32 35 38 40 39 37 36 35 34 34 35 36 37 38 38 39 40 40 39 37 34 31 29 29 29 29 30 30
53 52 51 52 50 47 45 45 44 43 42 42 44 43 42 41 35 31 32 32 31 32 34 35 36 34 32 30 29 30 30 30 30 31 33 32 29 29 29 29 29 28 26 22 20 27 29 25 23 25 27 29 30 29 28 30 32 34 36 39 41 39 37 36 36 35 34 35 36 37 38 39 40 40 40 38 35 31 28 28 28 28 29 29 30
51 50 48 47 48 49 49 48 46 45 44 41 40 41 40 39 36 30 30 31 30 31 32 34 35 32 31 29 27 26 27 30 31 31 32 33 31 31 32 32 31 29 26 22 24 28 25 21 22 24 27 29 29 28 28 31 33 35 37 40 42 40 38 37 36 35 34 35 36 37 38 39 39 39 39 36 31 27 26 26 27 28 29 30 30
52 50 48 46 45 46 49 51 50 48 45 41 40 40 39 38 37 33 31 33 33 34 33 33 34 32 29 27 27 27 27 29 31 32 32 33 33 33 33 33 32 28 24 22 23 22 20 20 21 24 28 29 27 27 30 32 33 35 38 41 42 41 39 37 35 34 35 36 37 38 38 39 39 38 37 32 27 25 25 26 28 29 30 30 31
52 52 51 50 49 46 46 49 51 51 47 43 42 43 41 39 38 37 36 35 34 35 36 35 34 34 31 27 26 28 29 31 32 33 33 34 34 35 35 33 30 26 22 20 20 20 19 19 20 25 27 26 25 28 31 32 33 36 39 42 43 42 39 37 35 34 35 37 39 39 38 39 38 37 34 28 25 24 25 27 29 30 31 32 32
54 53 53 53 53 50 45 45 47 51 51 47 45 45 43 41 38 39 39 35 33 33 35 37 36 35 33 30 29 30 32 32 32 33 35 35 35 34 33 31 28 24 20 20 22 22 19 18 21 24 24 23 26 29 31 32 35 37 39 42 43 42 39 37 35 34 36 39 41 41 40 38 37 35 30 26 25 25 26 28 28 28 28 28 29
56 54 53 53 54 53 49 46 45 47 52 51 48 45 43 42 40 39 39 34 32 33 34 36 37 37 34 32 32 32 34 33 32 33 34 34 33 31 29 28 26 22 18 20 23 22 19 20 22 23 22 24 27 29 31 33 35 38 41 43 43 42 40 38 37 37 39 43 44 43 40 37 35 32 28 26 26 26 26 26 24 23 22 23 24
58 55 54 53 53 54 52 49 46 45 47 51 51 49 44 43 43 42 40 37 34 34 34 35 36 38 38 37 36 34 33 30 30 31 31 31 29 28 27 26 26 22 18 20 22 20 19 20 21 22 23 25 27 29 31 34 36 39 42 44 44 42 40 38 38 39 42 45 46 42 37 34 32 29 27 27 28 26 24 23 21 19 19 19 20
57 57 57 55 54 52 52 52 51 47 45 47 50 53 48 43 45 45 44 41 39 36 35 35 34 35 36 37 36 33 29 28 27 27 28 28 26 26 25 24 25 23 19 20 20 18 19 20 21 22 23 25 28 30 32 35 38 41 44 45 43 42 40 38 39 42 45 46 43 38 33 30 27 26 26 28 28 24 21 20 18 16 17 18 18
56 56 57 57 56 53 51 52 53 51 46 44 46 52 51 45 44 47 47 45 42 40 38 36 35 34 33 33 31 29 27 27 25 24 25 25 25 24 24 23 23 22 20 18 17 17 20 22 23 23 26 28 31 32 34 36 39 42 44 44 43 41 39 39 41 44 45 42 37 32 28 25 24 25 26 27 24 19 17 16 13 14 16 18 19
56 55 54 54 56 55 52 51 53 53 48 43 43 47 48 45 43 44 46 45 43 42 40 36 35 35 34 31 30 29 28 27 24 23 23 24 24 23 23 22 22 21 19 17 16 20 23 25 26 28 30 32 33 33 34 37 39 42 43 43 42 41 39 40 43 44 41 37 32 27 23 22 23 25 25 23 18 15 13 11 10 13 16 18 19
58 56 53 52 54 55 55 53 52 53 51 45 42 44 45 44 44 43 43 42 41 43 41 37 36 36 34 32 32 31 31 29 26 23 22 23 24 23 22 21 21 19 17 17 18 23 27 29 30 31 31 32 32 32 34 36 39 41 42 42 40 39 39 42 43 40 37 32 27 22 20 22 23 23 22 19 13 10 8 7 9 13 15 17 18
57 55 54 52 52 54 55 55 52 52 53 49 44 43 43 43 44 43 43 42 41 44 43 39 38 37 36 35 34 33 32 30 28 25 22 24 24 23 21 19 20 19 15 18 22 27 31 33 33 32 31 31 30 31 33 35 39 41 40 39 38 38 40 41 39 35 32 26 20 18 20 22 22 20 18 14 9 7 5 6 10 12 14 16 17
57 56 55 52 51 52 53 55 55 52 53 52 48 44 43 42 42 42 42 42 42 44 43 41 41 39 38 38 36 35 32 29 28 26 24 24 24 24 21 17 19 21 16 18 24 29 31 32 32 31 30 29 28 30 33 36 39 39 38 36 35 38 39 37 35 31 27 21 17 18 21 21 19 17 14 11 8 5 4 7 11 12 14 15 16
58 56 54 51 50 52 53 54 56 54 53 53 51 46 44 41 41 41 40 39 41 44 44 42 41 40 39 38 37 36 34 30 28 27 25 24 25 26 24 18 17 20 18 19 25 28 28 28 27 26 26 26 28 30 33 35 36 37 35 33 35 38 37 34 31 28 23 18 17 19 20 19 17 14 11 9 7 6 6 8 11 13 14 15 17
60 58 55 52 51 52 53 54 56 56 54 54 54 49 45 43 40 42 42 39 39 42 42 40 39 37 38 37 37 38 37 33 31 30 28 26 27 29 26 21 17 19 21 22 25 27 27 27 25 25 26 27 28 30 32 33 33 34 33 33 36 37 34 31 29 26 21 18 19 21 20 18 15 11 9 8 7 7 8 10 12 15 16 16 18
61 61 59 55 53 52 52 54 55 56 55 55 55 51 47 45 41 41 43 41 39 40 40 39 39 38 38 38 38 39 38 36 35 34 32 29 29 30 28 24 21 21 23 25 27 29 29 29 28 28 28 27 27 29 31 31 33 34 33 34 36 35 31 29 28 24 20 19 20 21 20 17 13 10 8 8 8 9 10 12 14 16 18 18 19
62 63 62 58 56 54 53 53 54 55 56 56 56 54 51 48 43 40 42 43 43 44 44 42 42 42 41 40 40 39 37 38 38 38 37 34 32 31 29 27 26 25 25 26 27 28 28 28 27 27 27 26 26 29 30 30 34 36 35 36 36 33 29 27 27 23 19 20 20 20 19 17 13 9 7 7 8 10 12 14 16 17 19 20 21
62 63 63 60 57 55 54 53 52 54 56 57 56 56 54 51 45 42 43 46 46 47 47 46 46 45 43 42 40 37 35 35 36 38 38 38 38 36 32 30 29 29 28 27 26 25 26 26 25 27 27 27 27 28 29 31 35 37 37 37 36 32 27 26 25 21 19 20 20 20 19 16 13 7 5 7 9 11 13 15 17 19 21 22 23
63 64 64 61 58 56 54 53 53 53 56 57 57 57 57 55 48 44 46 47 47 47 46 46 46 45 44 43 40 36 32 31 31 33 35 37 40 39 36 32 31 33 32 30 28 26 26 26 27 28 29 28 27 27 29 31 35 37 38 38 36 31 27 26 23 19 19 21 20 19 18 17 12 7 4 6 8 11 14 16 18 20 22 24 25
66 65 65 62 59 57 56 55 54 53 55 57 57 57 58 59 53 47 48 49 49 50 47 45 44 42 43 42 38 35 32 30 28 28 31 35 37 38 37 34 33 35 34 32 31 29 28 27 28 30 29 28 26 26 29 32 34 37 39 39 36 30 27 26 22 18 19 21 20 19 19 16 12 8 4 4 8 12 16 17 20 21 22 24 26
68 67 67 64 61 59 58 58 57 55 55 56 55 55 57 60 57 51 50 50 51 52 50 46 44 42 43 42 38 37 37 34 29 28 32 33 33 34 35 34 34 35 32 31 33 33 30 29 30 30 28 27 25 26 29 32 34 36 38 40 37 30 28 26 22 18 19 21 20 20 20 16 12 9 6 5 9 15 18 19 20 22 22 23 26
71 69 68 67 64 61 60 61 60 57 54 53 53 53 54 58 60 58 54 52 52 52 50 47 46 45 44 43 40 39 41 39 32 30 33 33 32 33 34 34 35 36 35 34 35 35 33 31 31 29 27 26 25 26 29 32 33 35 38 39 36 30 27 25 21 17 18 21 20 21 20 16 11 9 6 6 10 14 18 20 20 21 22 23 24
72 72 70 69 68 64 62 63 62 57 53 52 53 54 54 56 60 62 59 55 54 53 50 49 48 47 46 45 43 42 44 42 34 32 34 33 32 33 34 35 35 35 34 33 33 33 33 32 30 28 26 25 25 27 30 31 33 35 37 37 34 30 27 24 21 17 18 20 20 21 21 17 11 7 5 5 7 10 14 17 18 19 21 22 23
73 76 73 71 71 68 64 62 61 58 56 56 55 55 56 57 59 61 62 60 58 55 53 51 51 50 48 45 43 44 45 42 36 34 35 33 33 34 34 34 34 33 32 31 29 28 29 29 28 26 26 26 25 27 29 30 31 33 35 34 32 28 26 23 21 18 18 20 20 21 21 17 11 6 5 4 6 9 11 15 18 18 20 22 22
74 78 77 74 74 71 66 62 61 61 59 57 55 53 52 53 55 56 60 62 60 57 55 54 53 51 47 43 42 44 44 41 37 35 34 32 33 34 34 33 33 32 31 30 28 26 26 26 25 24 25 25 25 27 28 29 29 31 33 33 30 27 24 22 20 18 19 20 21 21 21 17 11 5 5 5 7 9 11 16 18 19 20 20 21
76 79 79 76 75 73 69 65 62 61 61 57 53 50 49 50 52 53 56 58 58 56 55 54 53 48 43 41 42 43 42 39 38 36 33 32 33 33 33 33 32 30 29 28 27 26 24 23 23 24 25 25 26 27 27 27 28 30 31 31 29 25 22 20 19 18 19 21 22 22 20 16 10 5 3 5 7 8 12 16 17 18 18 19 21
77 80 80 77 76 74 72 68 64 63 63 59 54 51 53 54 54 55 54 55 56 55 56 55 52 47 41 40 41 41 40 39 38 37 33 32 32 32 32 32 31 30 29 28 27 25 22 22 24 25 26 26 27 27 26 26 26 28 30 30 29 24 21 19 18 18 18 20 21 22 19 13 7 3 1 4 7 8 12 14 17 18 18 19 21
78 80 81 79 78 77 75 72 67 65 65 62 57 54 57 58 56 57 56 55 55 55 55 53 52 48 43 39 38 38 39 38 38 37 34 33 32 32 32 32 31 30 29 29 27 22 22 25 27 28 28 28 28 26 25 25 25 27 28 28 28 24 19 18 18 17 17 18 20 21 17 11 6 2 2 4 6 8 12 13 16 18 18 20 22
79 80 81 80 80 79 78 74 69 68 68 66 62 58 61 63 60 59 58 54 53 53 52 50 50 48 45 41 38 37 37 37 37 36 35 34 32 32 32 32 31 30 30 29 25 22 25 28 29 29 30 29 28 26 25 24 25 26 26 27 27 24 19 18 17 17 16 17 19 20 15 9 6 3 4 6 6 10 13 13 14 16 18 21 21
81 80 81 82 82 80 80 77 72 72 72 71 69 65 64 68 65 61 60 57 53 52 51 50 50 48 46 44 40 38 38 37 37 37 36 35 33 32 32 32 31 29 29 27 24 25 29 31 31 31 30 29 28 26 25 24 24 26 25 25 26 24 20 17 17 17 16 17 18 19 15 10 6 5 6 6 8 11 13 13 13 15 18 21 21
83 82 81 83 84 82 81 79 76 76 77 75 76 74 69 69 68 60 59 60 56 52 51 51 51 49 46 45 43 41 39 38 38 37 37 36 33 32 32 34 32 30 30 27 27 30 33 33 33 32 31 30 29 26 24 24 25 26 25 23 25 24 19 16 16 17 17 17 18 18 16 12 9 8 8 8 9 11 13 14 15 16 20 21 22
86 84 83 84 86 85 83 82 81 80 81 79 79 78 71 68 68 63 58 61 59 54 50 50 51 49 45 45 46 44 41 40 39 38 38 36 34 33 34 35 33 31 32 31 32 35 35 35 34 33 32 31 29 25 23 24 25 27 25 23 24 24 19 15 15 17 17 17 18 18 16 14 11 10 10 10 10 11 13 15 16 18 20 22 23
87 86 85 85 88 87 84 85 85 84 84 82 81 79 73 69 71 67 61 63 65 57 50 50 53 51 47 47 49 47 45 43 40 39 39 37 35 35 35 35 34 34 35 35 36 37 36 35 34 33 33 31 27 23 23 25 27 28 26 22 23 23 19 15 14 15 16 17 18 17 16 15 13 12 12 12 12 13 14 14 14 17 19 21 22
87 88 87 87 89 89 87 87 88 88 88 85 83 81 77 74 74 70 64 66 68 62 55 53 55 54 51 49 50 50 49 46 43 41 40 37 37 37 36 36 37 37 37 37 37 37 36 35 35 34 32 28 24 23 23 26 28 29 27 23 22 22 19 15 13 14 15 16 17 16 15 15 13 11 12 12 13 14 15 14 14 16 17 19 19
87 89 90 90 91 91 90 90 90 91 91 88 86 84 80 78 77 73 68 67 67 62 57 55 54 55 54 51 50 51 51 49 45 43 41 38 38 38 37 37 38 38 38 38 39 38 36 36 35 33 30 26 24 23 24 26 29 29 28 24 22 22 20 16 14 14 14 15 17 16 14 13 12 11 12 13 14 16 16 16 17 16 16 17 18
87 90 92 93 93 93 93 93 93 94 94 91 89 87 84 82 79 77 73 69 65 61 57 54 53 55 57 54 50 50 51 51 48 45 43 40 39 39 37 38 39 39 39 40 39 38 37 36 35 31 28 25 23 23 25 27 29 30 27 22 21 20 19 17 15 14 13 14 17 17 14 13 12 13 15 15 14 14 14 15 14 14 15 16 18
85 89 94 96 96 95 95 94 95 97 97 94 91 89 87 84 82 80 77 72 66 62 59 55 53 55 58 56 52 49 49 51 50 48 46 43 41 39 37 38 40 40 41 40 38 38 37 36 34 30 28 26 24 24 26 27 28 30 26 20 18 18 16 16 16 15 14 13 15 17 15 13 13 14 14 15 15 13 12 11 11 12 14 17 18
84 88 94 98 98 97 96 95 97 99 99 97 94 92 89 86 84 81 80 75 69 64 60 57 54 54 56 56 54 51 49 49 50 50 48 44 42 40 38 39 40 41 42 40 38 37 36 34 32 30 28 26 25 25 26 27 28 29 25 19 18 17 14 15 16 16 15 13 13 16 16 14 14 13 13 15 16 14 12 10 10 11 13 16 16
Wind_Direction
257 261 262 262 261 259 259 262 262 263 263 262 265 268 268 267 266 263 262 263 265 267 270 273 275 278 281 285 283 277 278 283 282 282 299 304 304 302 294 291 293 293 299 302 299 292 283 277 276 280 283 284 286 291 296 303 307 310 312 313 314 314 314 314 314 314 314 313 312 310 308 306 303 300 298 296 294 291 288 287 286 285 284 284 284
260 261 261 261 260 257 255 257 258 259 260 260 264 267 267 266 263 260 261 264 265 266 269 272 273 273 279 283 282 280 280 280 275 280 296 299 300 301 292 290 287 287 298 305 303 293 282 276 278 281 283 286 289 294 299 305 308 311 313 315 315 315 315 315 315 316 315 314 313 312 310 308 306 303 300 297 293 290 287 285 285 284 284 284 284
261 261 261 260 259 258 256 254 254 255 258 260 263 265 266 265 261 257 258 260 262 265 267 270 271 270 274 278 276 277 275 275 275 280 291 294 296 298 294 289 280 286 300 306 304 293 283 279 280 284 286 289 292 297 301 306 310 313 315 316 315 315 315 315 316 316 316 316 315 314 313 311 309 305 302 298 293 290 286 283 283 284 285 285 286
260 261 260 260 258 257 256 254 253 254 256 259 261 263 264 264 259 257 257 257 259 263 264 264 267 266 269 273 272 270 268 270 273 279 291 291 287 292 290 281 280 295 300 304 301 286 278 280 282 285 288 291 294 299 303 307 312 315 316 316 315 315 316 316 317 317 316 315 315 314 313 313 312 309 305 300 295 291 286 281 281 283 285 286 285
260 260 260 259 257 256 255 254 254 254 255 256 258 260 262 261 259 259 258 257 257 258 259 259 261 260 262 268 268 264 264 267 269 276 290 287 277 284 282 275 285 295 296 301 300 284 274 280 285 287 289 292 297 301 304 309 314 316 316 316 316 317 318 318 318 318 317 315 315 314 314 314 314 312 309 304 298 292 288 284 282 283 284 284 283
258 257 257 256 256 255 255 254 254 254 254 255 255 257 258 258 259 259 258 257 254 252 253 258 260 258 258 260 265 262 259 263 264 270 282 282 274 273 268 269 282 291 295 295 293 286 280 285 289 289 290 293 297 301 304 310 314 315 315 316 316 318 319 320 320 320 318 317 315 315 314 316 316 315 310 306 301 294 290 287 285 283 283 283 282
255 255 255 255 255 254 254 254 254 254 254 254 254 254 254 255 257 257 257 257 254 252 251 255 259 259 258 257 263 262 258 261 263 268 276 277 270 264 262 268 281 290 293 290 286 282 283 287 290 290 290 292 296 301 305 311 314 314 314 315 316 318 320 321 322 321 319 317 315 314 314 315 316 315 313 308 303 297 292 289 286 284 283 282 281
255 254 253 253 253 251 250 251 251 251 252 252 252 251 251 250 252 255 257 257 255 254 252 251 253 256 258 260 263 263 260 261 266 271 274 273 266 263 266 272 280 286 286 285 286 285 285 287 289 290 290 292 296 301 306 310 312 312 313 315 317 319 321 322 322 322 320 317 315 313 312 313 315 315 314 310 305 300 295 290 286 285 285 283 281
253 252 250 246 245 246 245 247 248 247 248 248 249 249 249 246 245 248 251 254 253 252 251 249 250 253 256 258 261 261 260 261 267 272 272 270 266 263 266 271 276 283 283 281 286 287 286 286 287 289 289 291 296 301 306 309 310 310 313 317 318 320 322 323 322 323 321 317 314 312 311 312 314 315 314 312 308 303 297 292 289 287 287 284 282
247 245 245 241 239 242 241 240 242 243 245 245 246 247 248 246 245 246 246 248 250 250 250 248 250 253 254 253 256 259 258 261 268 271 270 268 267 266 266 270 274 280 282 282 288 286 281 282 285 288 289 292 296 302 306 308 307 308 315 319 320 321 322 323 323 323 322 317 313 311 310 310 312 313 314 312 309 305 298 293 291 290 288 286 282
242 240 241 242 242 244 241 237 237 237 238 240 241 246 248 246 246 248 249 250 251 252 251 251 252 253 252 249 252 256 258 262 268 270 270 269 269 270 270 272 273 278 279 281 288 284 277 277 281 286 289 292 297 302 304 306 305 306 315 321 322 322 322 323 323 322 321 317 313 311 310 310 311 312 313 313 310 306 300 293 290 289 287 285 283
241 240 239 239 241 239 236 237 239 239 240 238 236 241 245 246 246 248 250 252 253 254 255 255 254 252 251 250 251 253 257 262 265 268 269 270 271 270 271 272 273 276 275 278 286 286 278 274 278 283 288 293 297 301 302 303 304 306 313 320 322 322 322 321 321 321 319 316 314 312 312 312 312 312 313 313 310 306 301 294 289 287 285 284 282
239 239 237 236 235 231 230 233 238 244 245 242 238 235 236 238 242 246 251 254 254 255 256 256 254 253 252 253 253 254 258 261 261 262 262 265 268 268 269 272 274 272 269 274 283 287 280 273 277 283 289 294 296 298 300 302 305 308 312 317 321 321 321 321 320 320 319 317 315 314 312 311 311 312 313 312 310 306 300 295 290 287 284 283 281
239 238 236 235 233 229 228 229 234 240 244 244 242 239 238 236 235 240 248 254 257 257 258 256 252 253 254 254 256 257 258 260 259 259 259 262 263 264 268 271 273 268 264 269 278 284 278 273 281 287 291 292 293 297 299 302 307 309 311 316 319 321 321 320 320 319 319 318 316 314 312 310 309 310 312 311 309 305 302 298 293 288 285 283 281
239 238 236 236 236 232 229 228 230 233 238 241 242 244 245 241 234 231 240 248 249 249 255 258 253 251 254 254 255 258 258 259 259 259 260 264 264 265 267 270 272 269 264 269 277 280 275 277 287 290 291 291 293 297 299 303 308 310 312 315 319 320 320 320 319 319 319 318 315 312 310 309 308 309 311 311 307 305 304 300 296 291 288 285 283
238 236 234 234 236 235 231 230 230 229 233 236 237 242 245 242 235 227 231 240 240 237 242 253 258 255 253 251 251 254 257 259 259 259 259 262 265 266 268 269 271 269 264 268 274 274 277 284 291 292 292 292 295 299 301 304 307 309 312 315 319 320 319 319 318 319 320 319 316 312 310 310 309 311 312 310 306 305 304 301 297 294 292 290 287
238 236 233 231 232 233 232 232 230 228 230 231 232 237 242 242 238 229 226 231 234 233 235 242 254 260 259 255 254 255 257 261 260 259 260 262 265 266 267 267 267 264 258 264 271 275 281 286 292 296 293 292 297 299 300 303 306 310 313 316 319 320 318 316 316 318 320 319 317 314 312 311 311 313 312 308 304 304 303 301 299 298 296 293 291
237 236 235 232 230 229 231 232 232 230 229 229 229 233 239 240 236 231 229 231 232 233 234 235 241 251 259 262 262 260 260 262 262 262 263 265 267 267 264 262 262 257 255 268 276 277 278 282 292 300 298 293 294 295 298 302 307 313 315 317 319 319 316 314 313 314 317 318 318 316 314 312 313 314 312 306 304 305 304 303 303 302 300 297 295
235 235 236 235 233 231 230 231 233 232 230 229 228 229 235 237 232 231 233 231 230 232 235 236 236 240 249 255 258 257 258 262 265 266 265 265 264 263 260 257 257 250 255 272 273 270 273 280 288 296 295 287 288 292 298 305 311 315 316 317 318 317 316 314 313 314 315 317 317 317 314 314 315 315 310 306 306 307 307 307 309 311 311 309 305
235 234 234 235 235 234 232 231 232 233 232 230 228 228 231 233 231 231 233 230 228 230 235 239 237 238 242 247 251 253 255 260 263 263 261 260 258 257 255 253 252 245 253 265 261 264 276 286 290 289 284 279 285 294 302 308 314 316 316 317 317 317 317 316 314 314 315 317 317 316 316 317 318 315 310 309 310 310 309 312 320 327 330 327 323
236 234 233 234 235 235 233 230 231 233 233 232 228 228 229 231 232 233 234 232 230 231 236 241 241 241 243 246 249 250 252 256 258 257 255 254 252 252 250 249 248 243 250 256 254 266 280 289 291 284 276 278 289 299 306 311 314 315 316 316 316 316 317 316 316 316 317 317 316 316 319 320 318 314 312 311 312 311 312 322 334 343 348 348 346
238 236 233 233 234 234 233 229 229 232 233 232 229 227 229 232 233 234 237 237 233 234 238 241 241 243 244 244 245 246 248 251 252 252 250 247 246 246 246 245 243 244 251 253 257 270 276 277 278 277 278 284 295 303 308 310 312 313 314 314 314 316 317 317 317 317 317 316 317 319 323 321 317 314 312 312 312 312 320 333 345 354 359 360 0
239 237 234 232 233 233 232 229 227 229 230 231 229 226 227 229 230 231 237 240 237 236 238 239 240 240 241 241 240 242 243 244 247 250 247 243 241 241 242 241 239 243 250 250 258 266 268 271 272 275 280 287 295 301 305 307 310 312 313 313 314 317 318 317 317 318 317 318 321 324 325 321 317 316 313 313 315 320 331 345 355 359 3 6 8
238 237 235 232 231 231 231 230 227 226 226 226 228 227 224 223 224 225 230 237 239 237 235 236 239 239 239 238 238 239 239 240 244 248 247 241 238 238 240 239 236 239 249 253 260 264 264 270 271 272 277 282 290 298 303 306 309 311 311 312 316 318 317 317 318 318 319 322 326 327 325 321 320 318 315 316 322 330 341 357 360 2 7 11 14
237 237 236 232 231 231 230 230 228 225 223 223 224 227 226 222 222 223 225 231 237 239 238 236 236 238 237 236 237 236 236 238 241 244 247 243 236 234 238 239 235 231 248 262 264 263 260 264 267 270 274 278 287 298 304 307 309 309 310 314 317 317 317 318 320 321 322 325 327 326 325 323 322 318 317 323 331 331 340 356 357 2 8 13 17
236 236 236 233 231 230 229 230 229 226 223 222 221 224 226 224 223 223 225 229 234 239 240 237 236 238 238 236 236 234 234 235 237 241 246 245 235 229 232 240 241 235 245 262 260 257 256 259 263 267 270 275 289 300 305 307 307 308 311 314 315 315 318 322 324 324 324 325 327 327 325 325 324 319 322 331 334 318 320 346 350 356 3 9 14
235 235 235 233 231 230 229 228 229 227 224 223 221 221 223 221 220 221 223 225 229 236 240 241 239 238 238 238 235 232 232 234 238 241 246 246 233 228 229 234 245 242 241 248 249 251 253 257 260 263 268 279 293 301 305 307 308 310 312 314 314 316 322 327 328 326 324 326 328 327 325 326 324 321 327 333 328 306 308 336 344 349 356 3 8
234 235 234 231 229 228 228 227 228 227 225 224 221 219 220 218 218 220 221 219 222 232 237 239 239 236 237 237 234 231 232 236 241 243 246 244 234 231 231 227 234 238 234 235 241 248 254 258 263 268 275 285 295 301 304 308 312 313 312 315 316 320 328 333 330 324 323 327 329 328 327 327 324 321 327 326 317 302 311 336 343 345 351 357 4
232 233 232 230 227 226 226 225 225 227 225 224 222 219 218 216 216 218 220 217 217 225 229 229 231 232 235 236 235 234 235 238 241 244 246 243 236 235 235 226 223 230 234 236 242 249 254 259 265 269 275 285 295 301 304 309 314 314 314 318 320 325 333 335 329 323 324 327 329 330 329 328 325 319 319 317 314 315 325 342 347 348 350 355 5
230 232 231 229 227 224 224 223 222 224 225 225 222 219 217 215 215 216 217 217 218 222 223 222 224 230 235 237 239 240 241 243 243 243 244 243 239 238 241 232 219 224 236 241 245 249 253 259 263 267 275 286 295 299 302 308 313 314 317 320 323 329 335 335 329 324 323 326 329 332 331 330 328 319 314 319 325 334 343 350 354 353 351 355 4
229 231 231 229 227 224 223 222 220 221 222 224 223 219 216 214 213 213 214 218 221 225 228 226 226 231 235 238 241 244 246 245 242 240 241 242 241 241 245 239 222 224 239 247 251 254 258 262 267 272 277 285 294 297 302 307 310 314 318 321 325 330 336 336 329 322 322 326 328 333 335 333 331 325 322 334 342 349 354 357 357 356 353 355 2
228 230 231 229 227 225 224 223 220 219 220 221 222 219 216 214 212 211 213 217 219 222 227 228 229 231 235 238 241 243 243 242 239 236 238 240 242 243 245 240 226 225 237 246 252 256 260 264 268 273 277 284 291 296 303 305 307 314 319 321 325 331 337 336 328 321 322 326 328 335 341 336 330 327 332 349 354 356 359 359 358 357 356 355 359
226 229 231 228 225 225 224 224 220 217 218 219 220 218 216 215 213 211 212 216 216 217 221 225 227 229 233 237 239 240 240 241 238 233 236 239 240 241 240 237 228 226 236 245 250 253 256 261 266 270 275 282 288 296 302 302 305 313 319 322 325 332 339 337 329 322 322 326 330 337 344 338 324 316 321 342 353 358 359 359 358 357 357 354 356
224 226 229 228 224 222 222 224 222 217 216 218 219 218 216 216 216 213 213 215 216 219 222 224 225 226 231 235 237 239 241 245 242 232 235 237 237 237 236 235 229 226 235 245 249 251 255 260 264 269 275 279 286 295 300 299 304 313 318 322 326 334 340 335 326 321 321 327 331 335 342 338 321 308 308 333 357 3 356 354 355 355 353 350 351
224 223 226 228 224 221 220 222 222 217 215 217 218 217 215 216 217 216 215 215 218 222 224 224 223 224 229 234 235 238 242 247 243 233 234 235 235 234 231 232 231 228 233 242 249 253 256 259 263 268 272 276 285 293 294 296 304 312 318 322 327 334 338 332 323 319 321 327 330 332 337 336 322 301 304 347 4 3 356 349 348 348 347 345 346
224 222 222 226 225 221 218 219 220 217 214 216 217 216 215 215 217 217 217 217 220 223 223 223 224 225 229 234 236 238 243 245 240 233 233 233 232 231 229 229 231 231 233 241 249 252 254 256 261 264 268 275 284 289 289 295 305 313 319 324 328 333 335 329 322 319 321 326 329 330 333 334 323 293 295 346 354 354 359 352 342 341 341 340 343
224 222 219 222 225 222 218 217 218 217 214 214 215 215 213 214 217 217 218 219 221 224 224 224 226 227 230 234 236 238 241 241 234 230 231 232 230 229 227 227 230 232 233 239 245 248 250 254 258 261 268 276 281 284 287 296 306 313 321 325 327 331 331 326 321 319 320 325 326 327 331 332 324 291 268 300 320 333 357 358 349 343 338 337 342
223 222 216 217 222 222 218 215 215 216 214 213 214 215 213 215 217 217 218 220 221 224 226 227 229 231 231 232 233 235 238 235 228 226 228 229 228 227 226 226 228 231 234 238 241 246 251 255 258 263 269 274 277 281 287 298 307 315 323 325 326 329 328 323 319 317 320 324 324 326 331 331 323 294 257 284 313 331 356 4 358 347 336 336 341
221 223 217 212 218 221 218 215 213 214 214 212 212 213 214 216 219 219 220 222 221 222 224 227 230 232 232 230 231 233 235 232 225 223 225 227 227 225 225 224 226 228 230 234 239 245 252 256 259 262 265 270 274 279 288 299 308 318 325 324 325 328 324 320 317 315 318 322 324 327 331 330 321 297 265 300 319 343 3 5 357 343 334 334 339
219 222 219 211 213 218 218 214 211 211 213 210 207 210 213 213 217 219 219 222 221 219 220 223 226 229 229 229 231 233 233 230 225 222 223 225 226 225 224 224 224 224 225 230 236 243 251 253 255 259 262 267 272 278 289 300 309 319 324 322 322 325 321 317 314 311 315 321 325 329 332 334 323 290 290 329 333 356 4 359 353 342 332 332 337
219 220 220 213 209 214 216 213 209 209 211 208 203 208 214 211 213 217 218 219 220 219 220 222 225 226 225 226 229 233 233 230 226 221 221 224 225 225 224 224 224 223 225 230 235 241 248 249 252 256 260 264 269 278 290 299 308 318 321 319 319 321 318 314 310 306 311 320 326 328 332 342 336 282 278 331 341 354 355 353 351 342 331 332 337
220 218 220 216 210 211 214 212 207 207 209 207 202 207 216 214 210 213 216 218 219 219 221 223 225 227 226 225 227 232 233 231 227 222 221 223 224 224 225 226 225 224 227 231 235 240 243 245 248 252 257 261 267 278 289 298 307 316 320 317 316 317 314 311 307 303 309 319 323 324 327 341 346 309 286 303 319 336 343 346 346 337 328 329 333
222 218 218 218 213 210 212 210 206 206 208 206 203 205 213 214 209 209 212 214 215 217 219 220 223 225 226 225 225 229 231 230 228 225 222 223 224 223 224 227 226 225 228 229 233 236 238 241 245 249 254 259 267 279 289 298 306 313 318 313 310 312 309 307 306 302 308 316 317 318 320 326 332 326 307 298 309 326 333 334 333 329 322 323 327
221 219 217 218 215 210 210 208 205 206 208 207 206 206 209 209 208 207 207 208 209 212 215 217 218 219 223 225 225 227 228 227 227 226 224 223 224 222 222 226 226 226 229 226 225 230 234 238 243 247 253 260 269 279 288 297 303 308 313 307 304 306 303 301 303 300 303 312 315 317 318 316 312 316 315 310 315 321 325 327 328 322 316 317 322
218 219 217 216 215 211 208 206 204 205 208 207 208 208 206 205 206 207 207 207 207 210 213 215 217 217 220 223 223 224 225 225 224 226 224 222 224 223 220 224 226 226 229 228 225 229 234 238 243 248 255 262 269 278 287 296 299 304 308 302 298 300 296 294 298 296 300 310 315 315 315 313 307 301 303 308 313 314 318 326 327 318 312 315 321
215 217 217 216 215 212 208 205 203 204 207 207 207 206 204 203 204 206 208 208 206 206 208 212 216 216 217 220 221 220 222 222 222 224 224 221 221 223 220 223 227 228 230 230 230 233 237 241 246 251 256 262 269 278 287 293 297 302 306 304 298 296 292 291 294 294 298 307 311 311 311 312 310 300 298 301 303 305 313 321 320 314 311 315 323
214 214 216 216 215 212 208 205 202 202 206 206 205 205 204 203 203 204 206 205 204 205 206 209 214 214 214 217 221 220 220 221 221 222 223 220 220 222 220 221 227 230 232 233 234 236 239 244 248 252 257 263 270 279 286 292 296 301 308 311 306 298 290 290 295 294 296 303 307 306 307 312 311 302 299 299 295 298 304 305 305 310 313 316 326
213 211 213 215 215 212 208 205 201 201 205 205 204 204 204 203 202 202 203 201 203 206 205 206 211 214 212 214 219 221 223 223 222 222 223 221 221 222 221 222 227 231 233 235 236 237 240 245 248 251 257 263 270 278 284 287 294 302 309 312 308 298 289 288 295 295 294 301 304 303 305 308 303 298 300 300 296 293 293 293 298 306 311 316 328
214 210 211 213 214 212 208 205 201 200 203 203 202 203 203 202 201 201 202 201 202 204 203 203 207 211 211 211 214 218 222 225 224 223 223 222 223 225 225 226 229 232 235 237 238 239 241 245 248 252 257 261 268 276 280 284 294 302 305 307 304 295 286 285 293 296 292 296 302 303 304 302 296 296 300 302 302 297 292 293 299 304 309 319 328
215 210 209 211 212 212 209 205 201 200 202 202 201 202 203 201 200 201 203 201 200 201 202 203 205 208 209 209 212 214 219 224 225 225 224 222 224 226 227 229 231 234 237 238 239 240 242 245 248 251 255 260 267 273 277 285 294 297 298 302 300 291 283 283 289 294 291 290 297 300 300 297 295 296 297 299 303 300 296 297 302 306 313 322 327
216 211 208 210 211 211 208 205 201 199 201 201 199 200 202 201 198 200 202 200 199 200 201 204 206 207 207 208 212 214 217 222 223 225 225 223 224 226 227 231 234 236 238 239 239 241 243 244 246 249 254 260 266 271 277 285 291 293 294 300 298 289 279 279 285 290 290 287 291 295 295 294 294 293 291 294 297 298 298 301 304 308 316 321 324
Height
10838 10838 10839 10841 10844 10844 10843 10843 10845 10846 10847 10848 10850 10852 10855 10859 10862 10864 10866 10868 10869 10871 10873 10875 10876 10878 10878 10879 10880 10880 10880 10880 10880 10880 10881 10881 10881 10881 10881 10881 10881 10881 10881 10880 10879 10879 10878 10877 10877 10876 10875 10874 10873 10872 10871 10870 10869 10868 10866 10864 10862 10859 10857 10855 10853 10851 10849 10847 10845 10844 10842 10840 10838 10836 10835 10834 10833 10831 10830 10828 10827 10826 10825 10824 10822
10835 10835 10836 10838 10840 10841 10841 10840 10841 10842 10843 10844 10846 10849 10852 10856 10858 10861 10863 10865 10867 10869 10871 10872 10874 10875 10876 10876 10877 10878 10878 10878 10879 10879 10879 10879 10879 10879 10879 10879 10879 10879 10879 10878 10878 10877 10877 10876 10875 10875 10874 10873 10871 10871 10870 10869 10868 10866 10865 10863 10860 10858 10855 10853 10850 10848 10846 10844 10843 10841 10840 10838 10836 10834 10833 10832 10830 10829 10827 10826 10825 10824 10822 10821 10820
10830 10829 10832 10834 10835 10837 10837 10837 10838 10839 10841 10842 10843 10846 10849 10853 10855 10858 10860 10863 10865 10866 10868 10870 10872 10873 10874 10874 10875 10875 10876 10877 10877 10877 10877 10877 10877 10877 10877 10877 10877 10877 10877 10877 10876 10876 10875 10875 10874 10874 10873 10871 10870 10869 10869 10868 10866 10865 10863 10861 10859 10856 10854 10852 10849 10847 10844 10842 10840 10839 10837 10836 10834 10833 10831 10830 10828 10827 10825 10824 10823 10822 10820 10819 10818
10826 10824 10826 10829 10830 10831 10832 10833 10835 10837 10838 10839 10841 10843 10846 10849 10852 10855 10857 10860 10862 10864 10866 10868 10869 10870 10872 10872 10873 10873 10874 10874 10875 10875 10875 10875 10875 10876 10876 10876 10875 10875 10875 10875 10875 10874 10874 10873 10873 10873 10871 10870 10869 10868 10867 10866 10865 10863 10861 10859 10857 10855 10852 10850 10848 10846 10843 10841 10839 10837 10836 10834 10833 10831 10829 10828 10826 10825 10823 10822 10821 10819 10818 10817 10816
10820 10819 10820 10822 10824 10825 10826 10828 10831 10833 10835 10836 10838 10840 10843 10846 10849 10851 10854 10857 10859 10861 10863 10865 10866 10868 10869 10870 10871 10871 10872 10872 10873 10873 10873 10873 10873 10874 10874 10874 10873 10873 10874 10874 10873 10873 10872 10872 10872 10871 10870 10868 10867 10867 10866 10865 10863 10861 10859 10857 10855 10853 10850 10848 10846 10844 10842 10840 10838 10836 10834 10832 10831 10829 10828 10826 10825 10823 10822 10820 10819 10817 10816 10815 10814
10813 10814 10815 10816 10818 10821 10822 10824 10827 10829 10831 10833 10835 10837 10840 10843 10846 10848 10851 10853 10856 10858 10860 10862 10864 10865 10867 10868 10868 10869 10869 10870 10870 10871 10871 10871 10871 10872 10872 10872 10871 10872 10872 10872 10872 10872 10871 10871 10870 10869 10868 10867 10866 10865 10865 10864 10862 10859 10857 10856 10853 10851 10849 10846 10844 10842 10840 10838 10836 10834 10833 10831 10829 10827 10826 10824 10823 10821 10820 10818 10817 10815 10814 10812 10811
10807 10809 10811 10813 10814 10816 10818 10820 10823 10825 10828 10830 10832 10834 10837 10840 10843 10845 10847 10850 10852 10854 10857 10859 10861 10862 10864 10865 10866 10866 10867 10867 10868 10868 10869 10869 10869 10870 10870 10870 10870 10870 10870 10871 10871 10871 10870 10870 10869 10868 10866 10865 10864 10864 10863 10862 10860 10858 10856 10854 10852 10849 10847 10845 10842 10840 10838 10837 10835 10833 10831 10829 10828 10826 10824 10822 10821 10819 10818 10816 10814 10813 10812 10810 10809
10803 10804 10807 10810 10810 10812 10815 10817 10819 10822 10824 10826 10829 10831 10834 10837 10840 10842 10845 10846 10849 10851 10853 10856 10858 10859 10861 10862 10863 10864 10864 10865 10865 10866 10866 10867 10867 10868 10868 10868 10868 10868 10869 10869 10869 10868 10868 10868 10867 10866 10865 10863 10863 10862 10862 10860 10858 10856 10854 10853 10850 10848 10845 10843 10841 10839 10837 10835 10834 10832 10830 10828 10826 10824 10822 10820 10818 10817 10816 10814 10812 10811 10809 10808 10807
10799 10800 10803 10806 10807 10809 10812 10814 10815 10818 10820 10822 10825 10827 10830 10832 10836 10838 10841 10843 10845 10847 10850 10852 10854 10856 10858 10860 10861 10861 10861 10862 10863 10863 10863 10864 10865 10865 10865 10865 10866 10866 10867 10867 10867 10866 10866 10866 10865 10864 10863 10862 10861 10861 10860 10859 10857 10855 10853 10851 10849 10846 10844 10842 10840 10838 10836 10834 10832 10830 10828 10826 10824 10822 10820 10818 10816 10815 10813 10812 10810 10809 10807 10806 10804
10795 10796 10798 10801 10803 10806 10808 10810 10812 10815 10817 10819 10822 10824 10827 10829 10832 10834 10836 10838 10841 10844 10846 10849 10851 10853 10855 10857 10858 10858 10859 10859 10860 10860 10861 10861 10862 10862 10862 10863 10863 10864 10865 10865 10864 10864 10864 10864 10863 10862 10861 10860 10860 10859 10859 10857 10855 10853 10851 10849 10847 10845 10842 10840 10838 10836 10834 10832 10830 10828 10826 10824 10822 10820 10817 10815 10813 10812 10810 10809 10808 10806 10805 10803 10802
10790 10791 10794 10796 10799 10803 10805 10806 10809 10811 10813 10816 10819 10821 10824 10826 10829 10831 10833 10835 10838 10841 10843 10846 10848 10850 10851 10853 10854 10855 10856 10857 10857 10857 10858 10858 10859 10860 10860 10860 10861 10862 10862 10862 10862 10862 10861 10861 10861 10860 10859 10859 10858 10858 10857 10855 10853 10852 10850 10847 10845 10843 10841 10839 10837 10835 10833 10831 10829 10826 10824 10822 10819 10817 10815 10812 10810 10808 10807 10806 10804 10803 10802 10800 10799
10784 10786 10789 10792 10795 10799 10801 10804 10806 10808 10810 10812 10814 10818 10821 10823 10825 10828 10830 10833 10836 10838 10840 10843 10844 10846 10848 10849 10851 10852 10853 10854 10855 10855 10855 10856 10857 10857 10857 10858 10858 10859 10860 10860 10860 10859 10859 10859 10859 10858 10857 10857 10856 10856 10854 10853 10851 10850 10848 10846 10844 10841 10839 10837 10835 10833 10831 10829 10827 10824 10822 10820 10817 10814 10812 10810 10807 10805 10803 10802 10801 10800 10799 10798 10796
10777 10780 10784 10787 10791 10795 10798 10801 10802 10805 10807 10808 10810 10813 10816 10818 10822 10826 10828 10830 10832 10835 10837 10839 10841 10843 10844 10846 10847 10849 10850 10851 10852 10852 10853 10854 10854 10854 10855 10855 10856 10857 10857 10858 10858 10857 10857 10857 10857 10856 10855 10855 10854 10854 10852 10851 10849 10847 10846 10844 10842 10840 10837 10835 10834 10832 10830 10827 10825 10822 10820 10817 10815 10812 10809 10807 10804 10802 10800 10799 10798 10797 10795 10794 10793
10771 10775 10779 10783 10787 10791 10794 10797 10800 10802 10804 10806 10807 10809 10812 10815 10819 10823 10826 10828 10830 10832 10834 10835 10837 10839 10841 10843 10845 10846 10848 10848 10849 10849 10850 10851 10852 10852 10852 10853 10853 10854 10855 10855 10856 10856 10855 10855 10855 10854 10853 10852 10852 10852 10850 10848 10847 10845 10844 10842 10840 10838 10836 10834 10832 10830 10828 10826 10824 10821 10818 10815 10813 10810 10807 10804 10802 10799 10797 10796 10795 10793 10792 10791 10790
10767 10770 10775 10779 10782 10787 10790 10793 10797 10800 10801 10804 10806 10808 10811 10813 10817 10820 10823 10825 10827 10830 10831 10832 10833 10836 10838 10840 10842 10844 10845 10845 10846 10846 10847 10848 10849 10849 10850 10850 10851 10851 10852 10854 10854 10853 10853 10853 10852 10851 10851 10850 10850 10849 10848 10846 10844 10843 10841 10840 10838 10836 10834 10832 10830 10828 10826 10824 10822 10819 10816 10813 10811 10808 10805 10802 10799 10797 10795 10794 10792 10790 10789 10788 10786
10763 10767 10771 10775 10779 10782 10786 10789 10793 10796 10799 10802 10804 10806 10808 10811 10814 10817 10820 10821 10823 10826 10829 10830 10830 10833 10835 10838 10839 10841 10842 10842 10843 10843 10844 10845 10846 10846 10847 10848 10848 10849 10850 10851 10851 10851 10851 10851 10850 10849 10848 10848 10848 10847 10845 10844 10842 10841 10839 10838 10836 10834 10832 10830 10828 10826 10824 10822 10820 10817 10814 10811 10808 10805 10802 10799 10797 10795 10793 10791 10789 10788 10786 10785 10784
10758 10762 10766 10770 10774 10778 10781 10784 10788 10792 10795 10799 10802 10803 10805 10808 10811 10813 10815 10817 10819 10823 10825 10828 10829 10830 10832 10834 10836 10838 10839 10839 10840 10840 10841 10842 10843 10843 10844 10845 10846 10847 10848 10849 10848 10849 10849 10848 10848 10847 10846 10846 10845 10844 10843 10842 10840 10839 10837 10836 10834 10832 10830 10828 10826 10824 10822 10820 10817 10814 10812 10809 10806 10803 10800 10797 10795 10793 10791 10789 10787 10786 10784 10782 10781
10753 10757 10761 10765 10770 10774 10777 10780 10784 10788 10791 10795 10798 10800 10803 10806 10808 10810 10812 10814 10817 10820 10822 10825 10827 10828 10829 10831 10833 10834 10835 10836 10837 10837 10838 10839 10839 10840 10841 10842 10843 10844 10845 10846 10846 10846 10846 10846 10846 10845 10844 10844 10843 10842 10841 10839 10838 10837 10835 10834 10832 10830 10828 10826 10824 10822 10820 10817 10814 10812 10809 10806 10803 10800 10797 10795 10793 10791 10789 10787 10786 10784 10782 10780 10778
10749 10753 10756 10760 10765 10770 10773 10777 10780 10783 10787 10790 10794 10797 10800 10802 10805 10807 10809 10812 10814 10817 10819 10821 10823 10825 10827 10828 10830 10831 10832 10833 10833 10834 10834 10835 10836 10837 10838 10839 10840 10841 10843 10843 10844 10844 10844 10844 10844 10843 10842 10841 10840 10839 10838 10837 10836 10835 10833 10832 10830 10828 10826 10824 10822 10819 10817 10814 10811 10809 10806 10803 10800 10797 10795 10793 10791 10789 10787 10786 10785 10783 10780 10778 10775
10745 10749 10752 10756 10760 10765 10769 10773 10776 10779 10782 10786 10790 10793 10796 10799 10801 10803 10805 10809 10811 10814 10816 10818 10820 10822 10824 10825 10827 10828 10829 10830 10830 10830 10831 10832 10833 10834 10835 10836 10837 10839 10840 10840 10841 10841 10842 10842 10842 10841 10840 10839 10838 10836 10835 10835 10834 10833 10831 10829 10827 10825 10823 10821 10819 10816 10814 10811 10808 10805 10803 10800 10797 10795 10793 10790 10789 10787 10786 10785 10783 10781 10779 10776 10773
10741 10745 10748 10752 10756 10760 10764 10768 10772 10775 10778 10782 10786 10789 10792 10795 10798 10799 10802 10805 10808 10811 10813 10815 10816 10819 10821 10822 10823 10824 10826 10827 10827 10827 10828 10828 10830 10831 10832 10833 10835 10836 10837 10837 10838 10839 10839 10839 10839 10839 10838 10837 10835 10834 10833 10832 10831 10830 10829 10827 10825 10823 10820 10819 10816 10814 10811 10808 10805 10802 10800 10797 10795 10793 10791 10789 10787 10786 10785 10784 10782 10781 10778 10775 10772
10736 10739 10744 10748 10751 10756 10760 10764 10768 10771 10774 10778 10781 10784 10788 10791 10794 10796 10798 10801 10805 10808 10810 10812 10814 10816 10817 10818 10820 10821 10822 10823 10824 10824 10825 10826 10827 10828 10829 10830 10832 10833 10834 10835 10836 10836 10837 10837 10837 10836 10835 10834 10833 10832 10831 10830 10829 10828 10827 10825 10823 10821 10818 10816 10814 10811 10808 10805 10802 10800 10797 10795 10793 10792 10789 10787 10786 10785 10785 10783 10782 10780 10777 10775 10772
10729 10733 10738 10743 10747 10750 10755 10759 10763 10767 10770 10774 10776 10780 10784 10787 10789 10792 10794 10797 10802 10804 10806 10809 10810 10812 10814 10815 10816 10818 10819 10820 10821 10822 10822 10823 10824 10825 10827 10828 10829 10831 10832 10833 10833 10834 10834 10834 10834 10834 10833 10832 10831 10830 10830 10829 10828 10826 10824 10823 10821 10819 10817 10814 10811 10808 10805 10802 10800 10797 10796 10794 10792 10790 10788 10786 10786 10785 10784 10783 10781 10779 10777 10775 10772
10722 10727 10732 10738 10742 10745 10749 10753 10758 10762 10766 10769 10772 10775 10779 10783 10785 10788 10791 10794 10797 10800 10802 10805 10807 10809 10810 10812 10813 10814 10816 10817 10819 10819 10820 10821 10822 10823 10825 10826 10827 10829 10830 10830 10831 10831 10831 10831 10831 10831 10831 10830 10830 10829 10829 10827 10826 10824 10823 10821 10819 10817 10815 10812 10809 10806 10803 10800 10798 10796 10794 10793 10791 10789 10786 10785 10785 10784 10783 10782 10781 10779 10776 10774 10772
10716 10722 10727 10732 10737 10740 10744 10747 10752 10757 10761 10764 10768 10771 10775 10778 10781 10784 10788 10790 10792 10794 10798 10802 10803 10805 10807 10808 10810 10811 10813 10814 10816 10817 10818 10819 10820 10822 10823 10825 10825 10826 10827 10828 10829 10829 10828 10828 10828 10829 10829 10828 10828 10828 10827 10826 10824 10823 10821 10820 10818 10816 10813 10810 10807 10803 10800 10799 10797 10796 10793 10791 10789 10787 10786 10785 10785 10784 10782 10781 10780 10778 10776 10774 10772
10712 10717 10721 10727 10732 10736 10739 10743 10747 10752 10756 10760 10764 10768 10771 10774 10778 10782 10785 10788 10789 10789 10793 10797 10800 10802 10803 10805 10807 10808 10810 10811 10813 10814 10816 10817 10818 10820 10821 10822 10823 10823 10824 10826 10826 10826 10826 10825 10826 10826 10826 10827 10827 10826 10825 10823 10822 10821 10820 10819 10817 10814 10812 10808 10804 10801 10799 10798 10797 10795 10792 10790 10788 10786 10785 10785 10784 10783 10782 10781 10780 10778 10776 10774 10772
10707 10712 10717 10723 10728 10731 10734 10738 10742 10747 10752 10756 10760 10764 10768 10771 10775 10778 10781 10784 10786 10786 10789 10793 10796 10799 10800 10802 10804 10806 10807 10808 10810 10812 10814 10815 10816 10817 10819 10820 10821 10822 10823 10824 10824 10823 10823 10823 10824 10824 10824 10825 10825 10824 10823 10821 10820 10818 10818 10818 10815 10813 10810 10806 10802 10800 10798 10797 10796 10794 10791 10789 10787 10786 10785 10785 10784 10783 10782 10781 10780 10778 10776 10774 10773
10701 10706 10711 10717 10721 10725 10729 10733 10737 10742 10747 10751 10756 10761 10765 10768 10772 10774 10776 10780 10783 10784 10787 10790 10793 10795 10797 10799 10801 10802 10804 10806 10807 10809 10811 10813 10814 10815 10816 10818 10819 10820 10821 10821 10821 10821 10821 10821 10821 10822 10822 10823 10823 10822 10821 10820 10818 10816 10816 10815 10813 10810 10808 10804 10801 10799 10797 10796 10795 10793 10790 10788 10787 10785 10785 10784 10783 10782 10782 10781 10780 10778 10776 10774 10773
10695 10698 10703 10709 10714 10718 10722 10727 10732 10737 10742 10746 10751 10757 10761 10764 10768 10771 10773 10777 10779 10781 10784 10787 10790 10792 10794 10796 10797 10799 10801 10803 10804 10806 10808 10810 10811 10812 10813 10815 10817 10818 10818 10818 10818 10818 10819 10819 10819 10820 10821 10821 10821 10820 10819 10818 10816 10814 10813 10813 10811 10809 10806 10803 10801 10799 10797 10796 10794 10792 10789 10788 10786 10785 10785 10784 10783 10782 10782 10781 10780 10778 10776 10775 10773
10688 10690 10695 10701 10707 10712 10716 10721 10727 10732 10736 10741 10746 10751 10755 10759 10763 10767 10770 10773 10775 10776 10780 10784 10787 10788 10791 10793 10794 10796 10798 10799 10801 10803 10805 10807 10808 10809 10810 10812 10814 10815 10815 10815 10815 10816 10816 10817 10817 10818 10818 10819 10819 10818 10817 10816 10814 10811 10811 10810 10809 10807 10805 10803 10800 10798 10796 10795 10793 10791 10789 10787 10786 10785 10784 10783 10783 10782 10782 10781 10779 10778 10776 10774 10773
10684 10685 10688 10694 10701 10707 10711 10716 10721 10726 10730 10734 10739 10745 10750 10754 10758 10762 10765 10768 10770 10772 10776 10780 10783 10785 10787 10789 10791 10793 10795 10795 10797 10799 10801 10803 10804 10806 10808 10810 10811 10812 10812 10812 10812 10813 10813 10814 10815 10815 10816 10817 10817 10816 10815 10814 10811 10809 10808 10808 10807 10806 10804 10802 10799 10797 10795 10794 10792 10791 10788 10786 10785 10784 10783 10783 10783 10782 10781 10780 10779 10778 10776 10774 10773
10679 10680 10682 10690 10697 10703 10707 10711 10716 10720 10724 10728 10733 10738 10744 10748 10753 10757 10760 10762 10765 10769 10773 10776 10779 10781 10783 10786 10789 10790 10791 10792 10794 10796 10798 10799 10801 10803 10804 10807 10809 10809 10809 10810 10810 10810 10811 10812 10812 10813 10814 10815 10815 10814 10813 10811 10809 10807 10805 10805 10805 10804 10802 10801 10799 10796 10794 10793 10791 10790 10788 10786 10784 10784 10783 10783 10783 10782 10781 10779 10778 10777 10775 10774 10773
10673 10674 10676 10684 10692 10697 10702 10705 10710 10715 10717 10721 10727 10733 10738 10742 10748 10752 10754 10757 10760 10763 10768 10771 10774 10777 10779 10782 10785 10787 10788 10790 10792 10794 10795 10796 10797 10799 10801 10804 10805 10806 10807 10808 10807 10808 10809 10810 10810 10811 10812 10813 10813 10812 10811 10809 10807 10805 10803 10802 10802 10802 10800 10799 10797 10795 10793 10792 10790 10789 10787 10785 10784 10783 10782 10782 10782 10781 10780 10779 10778 10777 10775 10774 10772
10665 10668 10671 10677 10684 10690 10695 10698 10702 10708 10712 10717 10723 10729 10734 10738 10743 10747 10749 10752 10754 10757 10762 10766 10770 10773 10775 10778 10781 10783 10784 10787 10790 10791 10792 10793 10794 10796 10798 10800 10802 10804 10805 10805 10805 10805 10807 10808 10808 10809 10810 10810 10810 10810 10809 10807 10806 10804 10802 10800 10799 10800 10799 10797 10796 10795 10793 10791 10789 10788 10787 10785 10783 10782 10782 10781 10781 10780 10780 10778 10778 10777 10775 10773 10772
10657 10662 10666 10669 10675 10682 10688 10691 10694 10701 10709 10716 10720 10725 10729 10733 10738 10741 10744 10747 10750 10752 10756 10761 10765 10769 10771 10774 10777 10778 10780 10783 10787 10789 10789 10790 10791 10793 10795 10797 10798 10800 10802 10802 10803 10804 10806 10806 10807 10808 10808 10808 10808 10808 10807 10805 10804 10802 10800 10798 10797 10797 10797 10797 10795 10794 10792 10790 10788 10787 10786 10784 10783 10782 10781 10781 10780 10780 10779 10778 10777 10776 10775 10773 10772
10649 10655 10660 10663 10668 10674 10680 10684 10688 10698 10706 10711 10713 10717 10721 10726 10729 10733 10738 10743 10746 10748 10752 10756 10760 10764 10767 10770 10772 10774 10775 10779 10783 10785 10786 10787 10788 10790 10792 10794 10796 10798 10800 10801 10802 10803 10804 10804 10805 10805 10806 10806 10806 10806 10805 10803 10802 10800 10798 10797 10796 10796 10796 10795 10794 10792 10791 10789 10788 10786 10785 10783 10782 10782 10781 10781 10780 10780 10779 10778 10777 10776 10774 10773 10772
10639 10645 10653 10657 10660 10666 10673 10680 10686 10693 10697 10700 10703 10707 10713 10717 10721 10727 10732 10737 10741 10745 10749 10752 10755 10759 10762 10765 10768 10769 10771 10775 10779 10781 10782 10783 10785 10786 10789 10791 10793 10795 10797 10798 10800 10801 10802 10802 10803 10803 10803 10804 10804 10803 10803 10802 10801 10799 10797 10796 10796 10795 10795 10794 10792 10791 10790 10788 10787 10785 10784 10783 10782 10781 10781 10781 10780 10779 10779 10778 10777 10776 10774 10773 10771
10628 10633 10642 10649 10653 10659 10668 10675 10680 10684 10689 10694 10699 10705 10712 10716 10719 10723 10727 10730 10735 10741 10746 10749 10752 10755 10758 10761 10763 10765 10767 10771 10774 10776 10778 10780 10781 10783 10786 10788 10790 10792 10794 10796 10797 10799 10799 10800 10800 10801 10801 10802 10802 10801 10801 10800 10800 10798 10796 10795 10795 10795 10794 10793 10791 10790 10788 10787 10786 10785 10784 10782 10781 10781 10781 10781 10780 10779 10778 10777 10776 10775 10774 10772 10771
10619 10622 10631 10642 10648 10654 10661 10667 10673 10678 10683 10689 10696 10701 10707 10711 10715 10719 10723 10727 10732 10737 10742 10746 10748 10751 10755 10758 10760 10761 10763 10767 10770 10773 10776 10777 10779 10781 10783 10785 10787 10789 10791 10793 10795 10796 10797 10798 10798 10799 10799 10800 10800 10799 10799 10799 10798 10796 10795 10793 10793 10793 10793 10792 10790 10789 10788 10786 10785 10784 10783 10782 10780 10780 10780 10780 10779 10778 10778 10777 10776 10775 10773 10772 10770
10611 10614 10622 10635 10643 10648 10652 10659 10667 10673 10677 10683 10691 10694 10695 10698 10704 10711 10717 10722 10727 10732 10736 10740 10744 10748 10752 10756 10758 10759 10761 10764 10768 10771 10773 10775 10776 10778 10780 10782 10784 10786 10788 10790 10792 10794 10795 10795 10796 10796 10797 10798 10798 10798 10797 10797 10796 10795 10794 10792 10791 10792 10792 10791 10790 10789 10787 10785 10784 10783 10782 10781 10780 10779 10779 10779 10779 10778 10777 10776 10776 10774 10773 10771 10770
10602 10606 10614 10627 10635 10639 10643 10651 10660 10666 10670 10676 10685 10688 10687 10690 10696 10703 10710 10715 10721 10727 10731 10736 10740 10744 10748 10752 10755 10756 10759 10762 10765 10768 10771 10772 10773 10775 10777 10779 10782 10784 10786 10788 10789 10791 10792 10793 10794 10794 10795 10795 10796 10796 10796 10796 10795 10794 10792 10791 10790 10791 10791 10790 10789 10788 10787 10785 10784 10783 10782 10781 10780 10779 10779 10778 10778 10777 10777 10776 10775 10774 10773 10771 10769
10593 10600 10608 10617 10625 10630 10635 10644 10654 10659 10662 10668 10676 10679 10681 10686 10691 10697 10705 10711 10717 10723 10728 10733 10736 10740 10744 10749 10752 10754 10757 10760 10763 10766 10769 10770 10772 10773 10775 10776 10779 10781 10783 10785 10787 10789 10790 10790 10791 10792 10793 10793 10793 10794 10794 10794 10793 10792 10791 10789 10788 10789 10790 10789 10788 10787 10786 10785 10783 10782 10781 10780 10779 10779 10778 10778 10777 10776 10776 10775 10775 10774 10772 10771 10769
10583 10592 10600 10607 10615 10622 10628 10638 10647 10651 10653 10659 10666 10668 10671 10679 10684 10690 10699 10707 10712 10717 10723 10727 10731 10735 10740 10745 10748 10751 10753 10757 10761 10764 10767 10769 10770 10771 10772 10774 10776 10778 10780 10782 10785 10786 10787 10788 10788 10789 10790 10791 10791 10792 10792 10791 10790 10790 10789 10788 10786 10787 10788 10788 10786 10785 10784 10784 10783 10782 10781 10780 10779 10778 10778 10777 10777 10776 10775 10775 10774 10773 10772 10771 10769
10573 10582 10591 10597 10605 10613 10621 10631 10638 10641 10644 10649 10655 10658 10663 10672 10680 10687 10695 10700 10705 10710 10715 10720 10725 10730 10735 10740 10744 10747 10750 10754 10757 10761 10764 10767 10768 10769 10770 10771 10773 10775 10777 10780 10782 10783 10784 10785 10786 10787 10788 10788 10789 10789 10789 10789 10788 10788 10788 10787 10785 10785 10787 10786 10785 10783 10783 10783 10782 10781 10780 10780 10778 10778 10778 10777 10776 10775 10775 10774 10773 10773 10771 10770 10768
10564 10573 10581 10587 10594 10602 10611 10621 10628 10632 10636 10640 10645 10651 10660 10669 10676 10683 10690 10696 10702 10707 10712 10717 10721 10726 10731 10736 10740 10743 10746 10750 10754 10757 10761 10765 10767 10767 10768 10769 10770 10772 10774 10776 10778 10779 10781 10782 10783 10785 10785 10786 10787 10787 10787 10786 10786 10786 10786 10785 10784 10784 10785 10785 10784 10782 10782 10781 10780 10780 10779 10779 10777 10777 10777 10776 10776 10775 10774 10774 10773 10772 10771 10769 10768
10555 10565 10572 10578 10584 10592 10602 10610 10618 10623 10627 10632 10637 10645 10655 10663 10669 10676 10683 10689 10696 10703 10708 10713 10717 10721 10727 10731 10735 10739 10742 10746 10750 10754 10757 10761 10764 10765 10766 10767 10768 10769 10771 10773 10775 10776 10778 10780 10781 10782 10783 10784 10784 10784 10784 10784 10783 10783 10783 10783 10782 10781 10782 10783 10783 10782 10781 10780 10779 10778 10778 10777 10776 10776 10775 10775 10775 10775 10774 10773 10773 10771 10770 10768 10767
10546 10556 10563 10568 10574 10583 10593 10601 10609 10614 10618 10624 10631 10638 10648 10656 10663 10670 10675 10681 10689 10696 10701 10705 10711 10716 10722 10728 10732 10736 10739 10742 10747 10750 10753 10757 10760 10761 10763 10764 10765 10766 10768 10770 10771 10773 10776 10777 10778 10780 10780 10781 10782 10781 10781 10781 10780 10781 10781 10781 10780 10778 10779 10780 10781 10781 10780 10778 10777 10777 10777 10776 10775 10774 10774 10774 10774 10774 10773 10773 10772 10771 10769 10768 10767
10535 10544 10552 10558 10564 10572 10581 10590 10598 10605 10609 10615 10623 10630 10639 10648 10657 10664 10670 10677 10684 10690 10695 10700 10706 10712 10718 10724 10728 10733 10737 10740 10743 10747 10750 10754 10756 10758 10760 10762 10763 10764 10765 10767 10768 10770 10773 10774 10775 10777 10778 10779 10779 10778 10778 10778 10778 10778 10779 10779 10778 10776 10776 10777 10778 10779 10779 10777 10775 10775 10776 10776 10775 10774 10773 10772 10773 10773 10772 10772 10771 10770 10768 10767 10766
10523 10534 10541 10547 10554 10561 10570 10578 10588 10595 10600 10607 10615 10622 10630 10640 10649 10657 10664 10671 10678 10684 10689 10695 10701 10706 10712 10718 10723 10729 10733 10736 10740 10744 10747 10750 10752 10754 10757 10759 10760 10761 10762 10763 10765 10768 10770 10771 10772 10774 10775 10776 10776 10776 10775 10775 10776 10776 10776 10777 10776 10775 10774 10773 10775 10776 10777 10776 10774 10773 10774 10775 10774 10773 10772 10771 10771 10771 10771 10770 10770 10768 10767 10766 10765
10512 10522 10529 10535 10542 10550 10559 10569 10578 10586 10592 10600 10609 10615 10622 10632 10643 10651 10658 10666 10672 10679 10685 10691 10696 10701 10707 10714 10719 10724 10728 10732 10737 10741 10743 10747 10749 10751 10753 10755 10756 10758 10758 10760 10763 10764 10766 10768 10769 10771 10772 10773 10773 10773 10773 10773 10774 10773 10774 10775 10774 10774 10772 10771 10771 10773 10774 10775 10773 10772 10772 10773 10773 10772 10771 10769 10769 10770 10770 10769 10768 10767 10766 10765 10764
10500 10509 10517 10524 10531 10539 10550 10561 10570 10577 10584 10593 10602 10609 10616 10626 10636 10645 10653 10661 10669 10676 10683 10689 10693 10698 10704 10711 10716 10721 10724 10728 10733 10737 10740 10744 10746 10748 10750 10751 10752 10754 10755 10757 10759 10761 10763 10765 10767 10768 10769 10769 10770 10770 10770 10771 10771 10770 10771 10773 10772 10772 10771 10769 10768 10769 10771 10772 10772 10771 10771 10771 10771 10771 10770 10769 10768 10768 10768 10767 10767 10766 10765 10764 10764